Location: Austin
(30.3000°N, 97.7500°W)
Time: 01:23:28
(UTC-06:00)

MOS 1 Rocket - Pass Details

Date: 04 November 2025
Orbit: 609 x 814 km, 97.4° (Epoch: 15 November)

Event Time Altitude Azimuth Distance (km) Brightness Sun altitude
Rises 18:57:12 0° 175° (S) 2,912 6.6 -16.9°
Reaches altitude 10° 18:59:26 10° 179° (S) 1,988 5.7 -17.3°
Maximum altitude 19:03:40 61° 260° (W) 694 3.5 -18.3°
Drops below altitude 10° 19:07:52 10° 341° (NNW) 1,963 5.8 -19.1°
Sets 19:10:04 0° 345° (NNW) 2,872 6.6 -19.6°
